Wetbulb
53.41 53.43 53.76 54.11 53.96 53.85 53.89 54.01 54.09 54.22 54.29 54.55 54.70 54.57 54.48 54.54 54.59 49.31 42.45 47.32 52.45 59.89 61.06 54.10 58.32 58.31 54.63 54.10 55.07 48.82 39.73 37.45 41.75 44.56 46.28 50.91 47.08 53.47 55.53 53.82 54.28 56.27 56.41 58.06 60.02
53.15 53.31 53.41 53.99 54.06 53.90 54.00 54.02 53.98 54.11 54.26 54.31 54.23 54.08 54.14 54.33 48.11 44.52 49.77 55.16 57.48 60.62 54.20 49.11 46.83 55.17 47.20 49.71 53.66 47.12 39.23 41.41 46.25 48.64 48.11 50.12 48.32 50.06 51.84 51.28 52.06 54.14 57.61 58.47 59.50
53.01 52.97 52.99 53.65 53.82 53.77 53.91 54.02 53.96 54.17 54.14 53.95 53.80 53.67 53.78 52.27 38.70 37.79 60.73 58.24 59.24 59.52 56.44 53.98 52.58 50.38 49.83 51.41 50.50 50.17 44.89 46.46 46.96 49.37 50.31 50.30 49.58 51.11 49.70 48.54 51.63 51.71 54.35 55.85 56.79
52.32 53.08 53.34 53.27 53.62 53.53 53.67 53.69 53.95 54.12 53.96 53.63 53.02 52.71 53.62 46.44 30.00 42.95 58.08 55.61 55.93 51.30 54.57 51.30 48.48 43.61 42.69 47.25 52.03 47.11 51.40 51.99 51.27 52.55 51.37 49.69 52.25 50.78 51.18 50.79 54.07 54.49 54.97 54.93 55.56
52.70 53.06 53.05 52.97 53.19 53.11 53.29 53.62 53.95 53.89 53.44 53.11 53.06 52.80 46.45 39.08 38.75 47.06 54.51 51.86 47.91 46.63 48.35 49.79 45.64 44.33 39.25 41.98 46.77 49.41 50.15 52.38 54.83 55.05 53.84 54.86 53.49 52.87 53.64 56.80 56.82 57.02 57.19 56.22 55.05
52.17 52.21 52.60 52.65 52.88 52.93 53.28 53.73 53.83 53.36 53.29 53.33 53.32 52.46 43.57 34.40 46.92 48.48 48.19 49.31 46.51 42.74 43.56 48.36 44.96 45.85 43.68 40.99 44.46 43.34 46.03 49.50 50.79 50.83 51.01 50.37 50.83 50.36 52.28 55.91 55.66 55.90 55.75 55.94 55.50
52.46 52.14 52.25 52.31 52.60 53.05 53.49 53.86 53.90 53.84 54.08 54.00 53.30 50.45 43.16 39.46 48.69 49.34 47.84 45.48 45.44 46.21 42.10 44.72 49.68 45.93 42.73 40.06 42.98 42.58 39.95 42.05 43.56 45.26 47.53 50.70 47.29 48.38 52.84 53.89 53.02 53.81 54.44 55.15 55.93
52.04 51.78 51.93 52.14 52.43 52.74 53.45 53.90 53.94 55.01 55.28 54.44 53.61 47.46 38.95 48.83 48.72 47.77 47.04 46.06 47.51 46.80 45.15 45.90 45.27 41.31 41.38 43.47 42.44 39.25 38.01 36.70 43.94 43.82 45.49 47.69 42.39 49.77 52.32 52.57 52.02 52.92 53.33 54.10 54.72
51.77 52.25 51.70 52.06 52.45 52.87 53.32 53.33 54.16 55.28 54.98 54.55 47.48 43.97 38.37 50.43 47.24 49.72 48.09 45.43 46.17 46.31 45.29 48.43 42.98 39.57 40.27 37.06 34.01 35.90 35.59 34.85 39.00 45.07 45.34 44.89 42.90 48.29 50.92 50.31 50.31 50.70 50.78 51.76 52.56
51.56 52.02 51.85 51.98 52.53 52.91 52.75 53.39 53.34 53.19 53.20 52.48 50.41 39.86 41.71 42.05 46.79 47.94 48.68 47.65 44.65 43.34 41.90 40.20 37.49 34.51 33.26 33.75 29.74 31.94 33.28 36.81 36.60 41.50 43.97 41.82 42.98 46.70 48.75 49.19 49.48 50.17 50.45 50.29 51.15
51.37 51.58 51.96 52.23 52.27 52.53 49.37 43.54 40.34 38.72 40.35 37.44 39.42 40.06 41.89 46.06 48.58 45.92 47.78 45.17 43.69 40.54 33.03 36.11 31.13 29.85 34.42 37.06 38.23 36.29 34.53 34.29 38.40 42.77 41.45 41.47 42.61 44.97 47.09 47.06 47.53 48.84 49.70 50.62 51.47
51.39 51.16 51.46 51.81 52.00 51.98 44.12 40.99 41.95 41.97 35.04 42.80 41.43 41.54 44.59 45.29 40.82 44.19 46.47 39.28 38.00 33.08 34.50 31.68 28.07 35.20 37.81 37.75 36.59 35.54 32.46 32.31 37.15 40.98 39.35 38.52 38.02 41.33 43.30 44.40 46.41 47.75 48.38 48.75 49.37
51.15 50.60 50.81 51.36 51.47 45.78 42.07 43.51 44.94 41.57 33.13 37.89 41.58 41.09 43.07 42.98 40.42 40.81 43.36 39.98 35.72 32.31 32.08 29.01 32.23 37.86 36.35 34.87 33.82 33.07 32.19 32.70 33.77 38.72 40.01 37.95 36.74 39.99 43.46 43.60 45.18 46.10 47.25 48.48 49.54
51.26 50.46 50.46 50.43 44.49 42.56 41.67 45.73 45.14 42.41 27.06 33.32 38.60 41.15 42.58 42.23 38.35 45.67 45.45 40.94 36.15 32.13 33.48 30.78 35.18 34.77 33.29 32.92 34.87 29.68 36.85 36.87 36.75 33.70 28.84 36.51 27.99 37.14 40.79 42.01 43.36 44.08 44.96 46.59 46.79
50.79 50.46 50.06 50.14 41.93 41.52 44.48 44.85 43.30 39.12 14.29 35.94 37.84 45.25 43.53 37.51 39.50 41.52 47.90 42.84 35.25 34.67 33.75 32.05 32.34 31.28 31.24 32.78 36.22 32.17 37.42 35.57 36.22 32.44 30.11 32.46 27.92 35.48 36.99 37.68 39.17 42.65 44.75 45.77 47.24
51.02 50.42 50.00 45.53 42.61 44.17 45.48 43.18 40.51 26.14 15.22 32.56 38.12 36.64 36.45 38.36 38.70 41.31 41.57 45.25 43.55 38.28 38.13 36.13 39.31 35.40 34.05 36.64 36.78 38.19 35.17 33.99 32.09 29.95 23.58 30.72 30.27 32.36 35.31 38.10 40.31 41.85 43.70 44.79 44.89
50.84 50.36 48.18 47.04 40.16 43.55 42.89 37.37 25.34 18.45 34.08 31.29 32.53 35.63 34.72 33.56 35.33 37.04 35.65 33.81 32.15 29.26 30.52 35.39 34.17 38.05 37.62 32.03 34.48 32.60 27.26 20.86 19.59 19.97 22.08 32.84 29.95 33.76 36.51 40.21 41.11 42.47 43.67 44.77 45.55
50.11 47.54 47.18 46.96 43.69 44.38 37.99 30.08 16.18 29.19 30.21 36.78 35.34 34.86 30.64 33.15 33.10 34.78 32.95 30.70 37.55 35.64 31.91 29.80 25.78 33.30 38.70 33.92 30.07 29.42 28.14 21.15 19.70 20.36 22.34 32.90 27.76 33.18 40.66 43.37 43.78 44.16 43.84 44.25 44.36
47.79 41.94 41.48 44.20 46.54 41.85 34.69 22.69 25.10 30.06 35.40 33.84 34.09 29.64 28.80 32.15 32.35 31.56 30.30 31.32 36.19 37.32 30.34 29.89 28.99 38.14 39.62 39.02 36.44 30.79 25.98 32.45 25.30 26.66 22.50 27.01 32.14 37.95 41.55 42.42 42.70 42.68 43.54 43.81 44.18
39.35 39.80 41.94 45.51 44.33 39.41 31.27 29.24 29.52 36.68 37.72 35.94 28.98 31.44 26.29 28.64 28.91 28.86 29.30 35.72 35.28 38.81 38.35 33.98 26.41 36.18 38.32 40.09 38.91 33.42 34.51 25.05 22.63 19.69 19.46 25.20 27.94 30.77 36.86 38.42 41.77 42.48 42.67 43.89 44.78
38.46 38.02 43.47 44.78 42.87 35.25 25.21 28.30 33.57 39.08 39.18 35.03 32.44 30.98 30.08 29.46 29.86 28.75 31.03 35.91 38.25 37.44 38.22 34.82 29.13 31.74 35.38 32.39 30.21 31.80 28.09 28.89 26.48 24.54 21.57 21.78 26.13 36.04 37.71 39.41 40.03 41.93 47.33 48.09 48.15
36.09 33.49 43.67 42.60 32.03 23.36 24.87 32.29 38.37 37.30 39.45 37.38 36.32 33.70 31.29 31.53 29.61 30.05 30.38 34.59 39.86 38.22 33.34 35.66 31.06 26.79 29.12 34.69 36.62 33.33 30.84 30.75 24.96 24.15 26.70 24.11 25.68 38.47 38.68 39.43 41.49 44.20 49.24 53.53 53.08
38.08 37.20 43.00 40.01 23.17 23.12 30.46 33.74 36.12 36.37 36.10 36.43 35.39 35.73 34.75 32.00 29.28 31.91 33.35 38.69 38.01 36.96 33.61 34.90 29.35 23.86 25.05 30.88 34.33 30.89 32.97 31.94 29.94 28.11 24.68 22.69 26.44 39.33 40.88 41.62 43.23 43.70 48.39 54.30 55.91
39.03 30.74 34.26 34.28 32.25 28.60 30.34 31.66 32.83 38.28 37.63 37.64 35.48 36.71 34.71 32.12 33.42 31.86 33.16 37.09 38.15 37.91 42.15 38.42 31.39 27.42 20.67 25.49 30.26 28.65 31.97 33.26 32.63 26.29 26.83 28.54 30.99 36.96 39.68 40.08 42.65 44.59 47.60 53.39 56.01
34.60 30.87 34.46 27.28 27.84 28.86 33.63 33.46 32.17 32.37 38.40 37.23 35.15 35.36 34.93 32.56 31.85 31.35 34.27 35.07 38.22 39.97 36.49 33.66 29.38 30.30 30.45 32.42 32.79 32.01 31.41 32.14 31.48 32.04 29.15 31.36 32.28 36.89 39.31 40.87 43.07 45.31 50.52 54.74 55.75
28.85 31.07 33.66 30.07 31.37 29.70 30.90 31.66 32.71 33.75 34.19 33.38 34.07 35.77 36.00 32.61 32.45 31.38 33.70 34.34 34.24 36.70 34.83 37.33 30.10 29.91 28.51 32.30 32.93 30.61 32.32 32.77 33.02 33.35 33.28 34.48 34.02 41.31 42.17 43.69 46.55 49.54 52.24 54.51 55.87
38.79 34.94 34.95 32.05 28.60 26.63 27.19 31.50 32.48 35.41 36.64 37.91 36.69 36.00 33.42 35.46 38.63 38.51 38.09 37.17 36.75 35.43 34.48 34.50 32.57 25.99 23.08 30.38 30.30 25.08 30.50 32.73 33.30 35.18 34.86 30.94 35.61 41.46 43.41 46.07 46.68 49.52 52.26 54.83 56.53
MSLP
1020.53 1020.15 1019.85 1019.50 1019.26 1019.03 1018.67 1018.11 1017.55 1017.36 1017.38 1017.09 1016.65 1016.30 1015.97 1015.31 1014.65 1014.18 1013.26 1011.26 1011.00 1010.60 1010.61 1010.30 1009.89 1009.90 1009.98 1010.11 1010.17 1010.58 1011.00 1010.53 1008.98 1008.28 1006.78 1006.00 1005.91 1004.49 1003.74 1003.17 1003.17 1002.80 1002.93 1002.79 1002.74
1020.76 1020.38 1019.92 1019.46 1018.96 1018.52 1018.11 1017.84 1017.76 1017.54 1017.02 1016.41 1016.34 1016.25 1015.78 1015.23 1014.54 1013.40 1011.63 1011.04 1010.75 1010.58 1010.69 1010.41 1009.96 1009.87 1010.27 1010.12 1009.94 1010.28 1010.08 1008.79 1007.51 1007.16 1006.50 1005.93 1005.32 1005.04 1004.27 1003.80 1003.35 1003.14 1002.99 1002.85 1003.21
1020.83 1020.35 1019.86 1019.42 1018.98 1018.52 1018.10 1017.74 1017.35 1016.92 1016.76 1016.84 1016.68 1016.28 1015.85 1015.15 1014.89 1012.10 1010.74 1010.92 1010.70 1010.25 1010.18 1010.38 1009.91 1009.61 1010.18 1009.96 1009.34 1009.09 1008.30 1007.56 1006.57 1006.50 1006.46 1005.83 1005.31 1004.57 1004.15 1003.70 1003.07 1003.06 1003.32 1003.42 1003.38
1020.95 1020.46 1019.97 1019.48 1018.97 1018.50 1018.05 1017.54 1017.10 1016.84 1016.76 1016.72 1016.56 1016.28 1015.70 1015.35 1013.76 1010.92 1010.84 1010.77 1010.63 1010.00 1009.93 1009.96 1010.14 1009.68 1009.70 1009.43 1008.91 1008.61 1007.64 1007.04 1006.44 1006.34 1006.22 1005.92 1005.45 1004.24 1003.92 1003.75 1003.15 1003.12 1002.96 1003.44 1003.83
1020.82 1020.31 1019.75 1019.21 1018.71 1018.21 1017.70 1017.29 1017.03 1016.66 1016.31 1016.08 1015.99 1015.89 1015.50 1015.09 1013.04 1011.29 1011.00 1010.93 1010.64 1010.45 1010.26 1010.02 1010.04 1009.27 1009.36 1008.81 1008.67 1007.90 1007.10 1006.84 1006.55 1006.51 1006.12 1006.04 1005.28 1005.18 1003.39 1003.26 1002.86 1002.35 1002.51 1002.72 1002.75
1020.84 1020.30 1019.74 1019.15 1018.56 1017.94 1017.43 1016.90 1016.63 1016.23 1015.93 1015.92 1015.95 1015.91 1015.76 1014.81 1011.53 1011.19 1011.12 1010.80 1010.78 1010.71 1010.28 1010.01 1009.64 1009.17 1008.95 1008.68 1007.95 1007.13 1006.88 1006.80 1006.55 1006.35 1006.23 1005.89 1005.15 1005.37 1003.60 1003.20 1002.99 1003.24 1002.61 1002.32 1002.41
1020.48 1019.98 1019.47 1018.90 1018.23 1017.44 1016.87 1016.10 1016.02 1015.57 1015.12 1015.20 1015.42 1015.47 1015.21 1013.19 1011.29 1011.16 1011.23 1011.06 1010.76 1010.83 1010.54 1009.92 1009.40 1009.57 1008.77 1008.57 1007.63 1007.25 1007.29 1007.06 1006.49 1006.14 1005.91 1006.07 1005.13 1002.90 1003.74 1003.54 1003.06 1002.86 1002.64 1002.31 1002.11
1020.65 1020.10 1019.45 1018.74 1018.03 1017.17 1016.45 1015.67 1015.04 1014.89 1014.57 1014.67 1014.94 1015.41 1014.35 1011.26 1010.99 1011.10 1010.68 1010.39 1010.18 1010.42 1010.56 1009.85 1009.49 1009.57 1009.00 1008.38 1007.83 1007.82 1007.68 1007.30 1005.72 1006.40 1005.96 1005.76 1003.08 1001.75 1002.65 1003.05 1002.65 1002.56 1002.28 1001.94 1001.55
1020.38 1019.83 1019.21 1018.57 1017.89 1017.14 1016.28 1015.52 1014.75 1014.56 1014.40 1014.57 1015.03 1015.13 1013.14 1010.76 1010.81 1009.70 1009.86 1009.96 1009.80 1009.71 1009.82 1009.62 1009.43 1009.23 1008.99 1008.82 1008.79 1007.91 1006.91 1006.30 1006.34 1005.23 1005.69 1005.52 1002.21 1002.35 1002.54 1002.83 1001.86 1001.89 1001.55 1001.37 1001.24
1019.98 1019.41 1018.89 1018.33 1017.76 1017.06 1015.78 1014.65 1014.10 1014.52 1014.68 1014.77 1014.95 1015.35 1012.38 1011.08 1010.11 1009.59 1009.40 1009.22 1009.37 1009.55 1009.65 1009.83 1009.59 1009.08 1008.76 1008.72 1007.42 1007.31 1006.87 1006.50 1006.05 1005.31 1005.29 1005.03 1002.12 1002.73 1002.65 1002.66 1001.87 1001.66 1001.18 1000.99 1000.65
1019.98 1019.35 1018.69 1018.02 1017.38 1016.73 1015.73 1014.68 1015.10 1014.90 1014.82 1014.86 1014.41 1014.04 1012.42 1010.97 1010.06 1009.29 1008.95 1009.05 1008.80 1009.35 1010.16 1009.78 1009.61 1008.39 1008.15 1008.12 1007.92 1007.65 1007.31 1006.90 1006.27 1005.61 1005.32 1004.62 1003.32 1003.03 1002.84 1002.25 1001.94 1001.24 1000.87 1000.36 1000.07
1019.94 1019.25 1018.61 1017.90 1017.26 1016.73 1016.55 1016.68 1016.94 1017.17 1015.87 1013.82 1013.28 1013.18 1011.78 1011.21 1010.56 1009.09 1008.89 1009.25 1009.14 1009.35 1009.86 1010.33 1009.36 1008.98 1008.51 1008.09 1007.99 1007.79 1007.85 1007.39 1006.97 1006.20 1005.94 1005.31 1003.98 1003.63 1003.12 1002.27 1001.42 1000.90 1000.36 1000.27 1000.02
1019.72 1019.09 1018.34 1017.66 1017.11 1016.89 1017.18 1016.75 1016.78 1016.92 1016.78 1014.05 1012.64 1012.10 1011.09 1010.98 1010.12 1009.17 1008.90 1009.13 1009.30 1009.40 1009.64 1010.09 1009.25 1008.75 1008.46 1008.02 1007.84 1007.72 1007.60 1007.56 1007.48 1006.72 1005.99 1005.85 1003.91 1003.01 1001.81 1001.21 1000.59 1000.09 999.87 999.61 999.41
1019.40 1018.84 1018.24 1017.50 1017.20 1017.42 1016.94 1016.26 1016.22 1016.35 1016.34 1014.08 1012.28 1011.16 1010.80 1010.49 1009.71 1008.79 1008.58 1009.24 1009.33 1009.23 1009.15 1009.26 1008.57 1008.30 1008.03 1007.71 1007.70 1007.54 1007.43 1007.50 1007.54 1007.53 1006.97 1006.23 1003.96 1002.54 1001.53 1000.18 1000.10 999.77 999.30 998.83 998.80
1019.17 1018.51 1018.06 1017.86 1017.53 1017.17 1016.29 1016.02 1015.76 1016.23 1015.98 1013.86 1012.27 1011.21 1011.34 1011.24 1010.39 1008.99 1008.60 1008.83 1009.09 1009.09 1009.27 1008.44 1007.94 1007.67 1007.47 1007.12 1007.02 1006.98 1007.33 1007.81 1008.13 1008.09 1007.76 1006.88 1006.42 1000.40 1000.51 999.63 999.34 998.95 998.48 998.11 997.59
1018.42 1017.96 1017.57 1017.59 1017.68 1016.30 1015.90 1015.79 1016.02 1016.69 1015.67 1014.12 1013.06 1012.45 1012.11 1011.61 1010.67 1009.48 1009.06 1008.66 1008.94 1009.14 1008.74 1007.98 1007.56 1007.19 1006.76 1006.61 1006.60 1006.78 1007.29 1007.93 1008.40 1008.80 1008.23 1006.81 1006.79 1000.38 1000.37 998.91 998.86 998.08 997.79 997.43 997.48
1017.72 1016.91 1016.97 1016.94 1016.60 1016.00 1015.77 1016.25 1017.03 1016.82 1016.06 1015.05 1013.99 1013.55 1013.20 1012.51 1011.29 1010.38 1009.84 1009.35 1009.59 1009.45 1008.84 1007.82 1006.77 1006.19 1006.36 1006.64 1006.64 1006.97 1007.64 1008.68 1009.51 1009.21 1007.46 1005.80 1006.01 1000.15 998.67 998.45 998.35 997.92 997.53 997.26 997.03
1017.22 1016.57 1016.53 1016.34 1016.09 1015.90 1016.13 1016.81 1017.27 1016.94 1016.20 1015.29 1014.64 1014.14 1013.81 1013.08 1012.12 1011.23 1010.57 1010.08 1009.71 1009.77 1009.11 1007.92 1006.75 1006.23 1005.81 1006.19 1006.42 1006.82 1007.56 1007.91 1008.12 1007.94 1007.11 1006.30 1003.74 999.77 998.64 997.79 997.16 997.54 997.46 997.00 996.48
1016.90 1016.88 1016.83 1016.17 1015.80 1016.09 1016.80 1017.45 1017.40 1016.79 1015.97 1015.47 1014.87 1014.47 1014.20 1013.70 1013.33 1012.38 1011.37 1010.89 1010.23 1010.12 1010.08 1008.86 1007.69 1006.90 1006.10 1005.86 1006.02 1006.48 1007.01 1006.94 1007.80 1007.38 1006.63 1004.79 1001.83 999.99 998.54 997.81 997.64 997.71 997.31 996.86 996.18
1018.03 1017.60 1016.97 1016.23 1016.06 1016.50 1017.50 1017.86 1017.19 1016.32 1015.78 1015.68 1015.42 1015.00 1014.67 1014.08 1013.73 1013.13 1011.85 1010.79 1010.42 1010.10 1010.19 1009.69 1008.64 1007.20 1006.82 1006.64 1006.01 1005.91 1006.18 1007.13 1007.71 1007.43 1006.34 1003.83 1002.09 1000.22 998.84 998.19 997.97 997.62 997.25 996.48 995.98
1018.28 1017.78 1016.84 1016.38 1016.40 1017.48 1018.45 1018.26 1017.11 1016.09 1015.90 1015.61 1015.21 1015.10 1014.92 1014.59 1014.08 1013.34 1012.02 1010.81 1010.45 1010.20 1010.12 1009.93 1009.72 1007.92 1007.24 1006.67 1006.27 1006.17 1006.32 1006.69 1006.96 1006.76 1005.72 1004.19 1001.53 999.26 998.45 998.48 998.23 997.82 997.15 996.75 995.84
1019.21 1018.61 1017.01 1016.52 1017.77 1019.23 1019.22 1018.45 1017.34 1016.20 1015.89 1015.59 1015.12 1015.04 1014.91 1014.71 1014.18 1013.47 1012.13 1011.09 1010.43 1010.51 1010.43 1010.33 1010.18 1009.51 1008.19 1007.00 1006.93 1006.96 1006.86 1007.09 1007.19 1006.73 1005.64 1004.82 1002.25 998.87 998.67 998.41 998.02 997.66 997.41 996.97 996.53
1020.19 1019.52 1017.40 1017.19 1019.02 1019.87 1019.38 1018.54 1017.47 1016.44 1015.90 1015.68 1015.49 1015.06 1014.89 1014.90 1014.55 1013.24 1012.06 1010.88 1010.72 1010.72 1010.66 1010.70 1010.78 1010.44 1008.94 1008.15 1007.45 1007.51 1007.48 1007.40 1007.26 1007.01 1005.88 1004.77 1001.22 999.05 998.20 998.09 998.12 997.95 997.88 997.67 997.31
1020.65 1020.35 1019.49 1019.52 1020.26 1020.42 1019.98 1018.55 1017.49 1016.43 1015.89 1015.61 1015.42 1015.02 1014.91 1014.66 1014.10 1013.12 1012.12 1011.55 1010.77 1010.56 1010.66 1010.98 1011.08 1010.89 1010.39 1009.22 1008.75 1008.36 1007.80 1007.66 1007.51 1006.94 1005.49 1003.46 1002.77 1000.46 999.21 999.35 998.66 997.91 997.68 997.52 997.48
1021.38 1021.75 1021.49 1021.13 1020.88 1020.78 1020.15 1018.83 1017.68 1016.64 1016.15 1015.69 1015.51 1015.15 1015.10 1014.17 1013.47 1012.54 1011.91 1011.39 1010.73 1010.54 1010.73 1010.81 1010.84 1010.79 1010.28 1009.74 1009.10 1008.42 1007.75 1007.17 1007.12 1006.36 1005.56 1004.04 1003.08 1001.65 1000.47 1000.01 999.09 998.18 997.61 997.52 997.52
1022.20 1022.30 1021.99 1021.52 1020.99 1020.54 1019.71 1018.56 1017.51 1016.85 1016.74 1015.67 1015.40 1014.78 1014.59 1014.03 1013.39 1012.01 1011.98 1011.34 1011.03 1010.72 1010.83 1010.81 1010.65 1010.39 1009.87 1009.28 1008.38 1007.62 1006.78 1006.32 1005.71 1005.13 1004.47 1004.03 1002.89 1001.82 1000.47 999.76 998.93 998.00 997.46 997.27 997.30
1022.17 1022.31 1022.22 1021.31 1020.97 1020.64 1019.58 1018.44 1017.67 1017.18 1015.99 1015.64 1015.22 1014.44 1013.70 1012.85 1012.15 1011.38 1010.91 1010.17 1010.56 1010.49 1010.46 1010.76 1010.65 1010.44 1009.40 1008.58 1007.75 1006.53 1005.02 1004.40 1003.68 1003.41 1003.30 1002.91 1002.52 1000.96 1000.39 999.43 998.64 997.62 997.11 996.76 996.84
Wind_Speed
17 17 18 18 18 17 17 18 19 19 17 16 17 17 19 20 22 3 7 11 7 11 13 7 4 4 1 3 4 4 2 5 7 8 6 2 2 2 6 1 2 1 1 5 1
17 18 18 19 20 19 19 18 18 18 18 18 18 17 18 20 7 9 9 10 11 15 4 5 5 7 3 6 6 6 5 10 6 8 4 4 3 1 4 3 3 0 2 6 4
19 19 20 20 20 20 20 20 20 19 17 16 16 16 17 13 4 7 12 12 9 12 8 5 5 7 6 4 6 8 11 13 6 7 3 7 8 2 4 7 6 6 5 7 10
19 20 20 21 21 21 21 21 20 20 19 16 13 13 14 3 5 3 8 17 15 13 5 3 6 4 9 13 6 5 12 13 4 5 3 7 9 13 8 10 7 9 8 5 10
21 22 22 23 23 23 22 22 20 20 18 15 12 9 3 4 12 7 16 12 7 7 4 4 9 4 7 6 5 15 10 8 15 10 8 5 16 12 20 16 17 20 17 14 8
21 21 22 23 23 23 23 21 19 19 16 11 7 5 3 3 5 3 6 13 4 3 5 4 7 8 5 6 17 2 8 11 7 7 4 7 14 5 4 11 15 12 18 16 12
20 22 23 23 24 24 23 24 18 18 13 7 5 6 4 14 4 6 6 3 3 3 3 6 8 5 1 3 5 4 6 4 7 5 10 7 22 31 18 15 19 19 18 17 18
20 21 22 23 23 24 24 26 25 18 6 3 6 2 9 6 4 7 4 4 6 5 7 10 6 3 6 5 5 4 5 13 13 8 6 11 30 24 8 17 21 19 15 15 17
20 20 22 23 23 23 24 24 22 8 6 8 4 3 12 5 2 7 8 4 6 3 5 11 4 7 3 4 4 5 16 9 6 9 11 12 32 11 9 10 17 12 11 11 12
22 21 22 23 22 21 24 19 11 6 6 5 2 1 6 8 6 4 6 6 3 4 3 4 4 4 3 7 17 10 6 1 5 5 14 12 31 12 8 9 17 15 14 11 13
22 22 22 23 23 21 10 6 8 7 4 4 9 4 15 8 9 5 5 2 4 6 3 4 4 14 11 10 9 6 3 2 1 2 3 16 21 17 12 13 15 18 18 18 18
22 23 23 23 22 17 3 5 4 5 11 12 11 9 12 6 6 7 1 1 1 4 1 5 9 7 4 6 9 9 2 4 5 9 4 6 13 13 10 13 15 17 17 14 12
22 23 23 23 24 3 1 2 4 4 2 9 6 4 9 4 5 7 3 2 4 3 4 7 8 3 5 5 5 4 5 3 7 9 10 9 17 16 13 11 15 15 15 14 16
22 22 21 24 2 2 3 1 3 4 3 7 5 3 7 10 4 16 6 5 3 6 5 6 7 7 7 5 11 11 4 1 3 3 7 3 12 16 16 21 15 12 15 15 11
22 22 18 11 4 1 2 5 2 4 4 12 4 4 11 2 9 3 2 1 7 6 1 10 7 3 4 6 7 6 11 8 4 4 4 6 5 14 4 13 9 14 18 19 21
25 23 17 2 1 5 5 4 4 7 5 7 6 11 15 7 9 6 6 2 1 4 7 12 9 5 7 8 5 4 5 4 3 3 6 7 8 24 11 18 14 8 13 11 9
28 25 5 3 3 2 2 4 6 5 4 6 9 10 15 6 11 7 12 7 4 4 4 9 11 13 6 4 2 4 5 1 1 3 10 14 10 25 3 7 6 8 10 9 9
28 10 3 3 2 4 4 6 7 3 5 7 7 15 5 8 7 8 6 6 2 6 5 5 4 7 8 11 8 7 9 5 6 6 4 7 15 11 13 15 12 9 11 10 10
17 3 1 3 1 2 6 5 5 3 4 6 12 3 4 6 4 7 5 3 2 4 6 5 1 6 6 2 10 5 5 9 3 3 1 6 8 10 12 20 8 7 8 11 11
3 4 4 6 2 5 6 3 3 3 7 7 4 2 5 8 6 6 4 3 4 7 2 4 6 5 4 4 11 5 5 5 1 5 5 6 6 8 8 9 5 9 11 12 10
4 4 3 5 4 6 3 5 5 4 7 3 4 6 6 5 4 4 6 6 1 5 5 2 0 4 2 4 5 1 1 2 3 5 4 3 6 7 4 5 7 9 9 11 11
3 3 3 3 5 1 1 4 6 3 2 5 4 5 5 4 5 4 6 4 4 2 5 2 1 4 7 6 4 2 3 2 5 6 7 3 9 5 5 4 6 13 15 9 3
3 3 4 4 2 3 5 5 4 4 5 3 5 3 3 3 6 5 6 5 8 2 3 1 1 4 6 3 5 3 3 4 2 1 5 5 8 5 10 15 13 14 9 4 2
3 5 5 5 1 2 5 4 4 6 6 3 6 6 2 4 7 7 9 8 4 3 13 3 4 5 5 2 2 4 8 9 5 4 7 15 12 22 22 14 17 20 9 2 4
4 1 0 5 3 4 3 5 6 7 3 5 4 3 8 8 14 17 10 6 10 10 5 6 7 6 9 11 10 11 13 14 15 12 10 3 3 14 15 17 16 12 8 5 6
2 3 4 4 5 4 5 3 8 6 5 10 6 13 14 13 16 21 17 11 8 4 3 2 3 2 10 11 14 16 15 18 18 18 17 15 14 17 18 12 9 14 11 8 8
1 1 2 4 3 2 4 5 6 14 8 7 15 18 15 16 14 19 19 22 16 11 5 4 2 1 6 5 7 10 19 20 20 15 11 15 7 15 11 12 12 12 8 9 11
Wind_Direction
355 349 345 343 342 340 337 335 334 331 328 329 332 333 329 327 321 300 253 228 212 304 338 296 235 196 134 195 180 136 131 222 220 170 236 231 284 251 291 86 17 89 108 247 306
352 348 344 342 340 337 334 331 325 321 324 330 332 330 328 325 313 273 267 282 291 289 295 241 218 166 192 202 191 170 186 219 190 211 227 242 252 255 287 29 216 359 287 348 32
350 348 345 341 336 333 329 326 321 319 320 322 326 328 328 329 294 231 131 22 333 299 223 275 313 197 203 192 206 192 217 226 215 208 234 273 292 207 346 313 224 267 174 350 320
347 343 340 337 334 332 328 321 317 314 313 315 321 330 322 318 318 85 316 358 352 341 150 199 229 213 181 206 202 227 226 228 237 207 246 252 297 292 262 239 282 272 277 214 225
345 342 340 337 334 330 325 320 317 312 311 312 315 320 19 352 254 336 346 353 344 357 323 210 220 185 192 204 188 232 213 211 242 247 244 265 257 262 280 289 295 296 291 275 279
342 341 338 335 333 329 324 317 315 315 311 303 284 266 190 285 260 292 339 327 334 348 295 206 230 220 277 223 198 161 216 234 243 237 236 250 269 233 234 260 261 272 278 289 277
339 338 337 336 334 330 326 320 320 322 307 284 237 226 254 244 235 310 315 242 237 243 257 253 236 261 301 299 249 270 285 281 226 230 246 217 268 252 246 252 260 261 258 261 264
336 333 333 332 332 329 326 321 319 325 327 188 183 211 252 243 273 290 217 267 233 230 230 270 278 255 194 292 322 206 160 241 234 182 247 158 259 246 224 230 247 245 246 252 258
336 332 332 332 330 326 318 308 304 325 109 139 121 135 275 292 242 233 182 255 303 182 213 272 174 200 163 183 353 251 236 214 247 215 199 191 254 249 221 240 258 266 260 253 256
337 334 331 329 328 326 315 303 296 129 125 159 153 282 272 306 309 271 219 245 220 327 313 192 227 212 171 165 214 221 233 204 203 198 188 205 247 256 271 241 258 259 262 261 263
337 333 330 328 330 334 341 6 14 348 42 267 271 260 281 282 276 277 265 237 188 85 357 266 196 221 229 241 257 43 72 55 323 264 283 223 250 253 250 259 257 264 261 264 272
335 334 332 329 329 330 12 75 102 256 304 306 251 243 260 258 284 305 46 331 238 179 102 341 261 260 246 202 243 271 263 256 266 260 212 275 277 280 262 258 256 256 259 257 259
334 336 333 330 323 44 335 207 138 157 249 294 248 252 269 167 271 277 153 274 232 190 211 196 253 338 266 230 230 202 216 207 225 294 282 302 282 272 261 234 248 252 258 254 248
331 336 335 334 68 306 283 249 306 170 50 280 328 314 357 302 256 325 193 198 267 241 226 213 254 232 223 232 223 242 178 247 326 163 258 24 289 270 270 263 248 250 251 260 244
328 330 329 323 282 223 244 313 336 65 2 312 329 281 322 50 272 334 133 143 243 252 280 236 197 219 240 211 185 243 199 225 221 252 269 256 310 282 242 266 270 252 254 251 251
325 324 321 137 227 248 312 336 59 48 276 334 319 336 345 321 315 285 318 249 137 263 227 249 252 202 216 240 203 204 179 164 158 144 253 204 192 279 247 247 254 260 252 255 253
327 322 276 163 227 292 319 51 41 103 341 322 317 331 327 288 317 316 321 312 249 325 332 285 234 227 200 244 235 160 101 139 72 175 232 179 183 237 262 307 241 277 283 264 257
329 341 182 218 283 360 55 56 72 256 270 310 309 309 279 348 299 316 299 324 7 293 290 284 179 171 190 199 201 184 161 176 178 182 219 198 227 249 233 254 277 282 263 282 274
333 341 27 276 217 100 62 55 196 248 292 311 320 294 294 318 278 333 300 272 19 29 324 330 153 356 18 350 169 199 168 211 25 282 193 212 280 289 284 286 290 289 303 290 290
352 352 330 322 70 56 69 258 230 232 306 318 262 249 283 314 321 342 296 270 352 5 166 294 293 134 196 102 303 178 184 105 332 205 247 255 258 234 319 286 355 324 301 297 281
27 44 281 338 51 46 115 245 287 296 353 266 267 276 265 308 282 279 269 311 17 341 321 288 174 312 335 202 185 150 299 199 171 182 208 303 266 220 249 70 333 302 317 297 293
3 44 311 30 46 57 62 307 292 287 234 285 279 242 251 294 278 272 258 308 360 351 317 321 5 283 264 290 345 338 257 229 200 254 253 130 277 332 113 65 8 347 328 331 34
1 291 324 71 78 321 305 289 270 286 294 305 294 262 322 299 293 265 271 310 318 297 284 334 309 312 322 349 26 85 315 268 225 150 220 223 243 279 328 1 350 337 332 331 138
355 358 331 39 82 85 317 291 285 322 284 243 260 268 295 269 234 274 273 309 307 223 301 252 216 217 219 292 346 298 296 299 272 254 252 243 290 298 304 337 335 322 322 205 154
18 340 247 307 324 325 234 283 278 324 279 297 295 234 300 284 299 270 277 292 273 298 309 180 228 219 243 260 267 258 268 270 262 256 248 333 291 288 305 309 297 291 317 195 162
45 22 357 293 290 273 264 240 283 315 307 299 248 290 291 281 272 285 282 265 253 280 222 163 265 258 279 262 244 251 258 257 251 245 255 257 269 272 278 282 286 293 315 205 186
334 321 123 257 294 346 250 274 308 309 275 251 290 293 294 279 286 280 270 267 250 246 209 195 238 273 268 264 322 286 245 236 242 237 217 233 223 260 284 290 280 284 298 213 189